This demonstration page uses our WeatherBlox Daily Observations layout. Learn more.

Left ArrowRight Arrow

38.80484, -77.04692

Hourly Observations for April 19, 2016

Temp ( °F °C ) Dew Point ( °F °C ) Humidity (%) Winds ( mph kmh ) Pressure ( in mb ) Visibility ( mi km ) Precip ( " mm )
12:52 am 00:52 Mostly Cloudy 61 16.1 53 11.7 75 75 S 7 11 30.11 1020 10 16 0.00 0.00
1:52 am 01:52 Mostly Cloudy 61 16.1 50 10 67 67 S 8 13 30.09 1019 10 16 0.00 0.00
2:52 am 02:52 Mostly Cloudy 61 16.1 48 8.9 63 63 S 7 11 30.07 1018 10 16 0.00 0.00
3:52 am 03:52 Mostly Cloudy 59 15 49 9.4 69 69 Calm 30.06 1018 10 16 0.00 0.00
4:52 am 04:52 Mostly Cloudy 57 13.9 51 10.6 81 81 Calm 30.05 1018 10 16 0.00 0.00
5:52 am 05:52 Mostly Cloudy 59 15 46 7.8 62 62 SSW 3 6 30.06 1018 10 16 0.00 0.00
6:52 am 06:52 Mostly Cloudy 59 15 51 10.6 75 75 S 5 7 30.06 1018 10 16 0.00 0.00
7:52 am 07:52 Cloudy 60 15.6 51 10.6 72 72 S 3 6 30.07 1018 10 16 0.00 0.00
8:52 am 08:52 Mostly Cloudy 65 18.3 51 10.6 61 61 SSE 5 7 30.06 1018 10 16 0.00 0.00
9:52 am 09:52 Cloudy 73 22.8 48 8.9 41 41 E 3 6 30.05 1018 10 16 0.00 0.00
10:52 am 10:52 Cloudy 79 26.1 42 5.6 27 27 NW 13 20 30.05 1018 10 16 0.00 0.00
11:52 am 11:52 Cloudy 82 27.8 43 6.1 25 25 NNW 15 24 30.03 1017 10 16 0.00 0.00
12:52 pm 12:52 Cloudy 83 28.3 44 6.7 25 25 NW 22 35 30.01 1016 10 16 0.00 0.00
1:52 pm 13:52 Cloudy 83 28.3 44 6.7 25 25 NW 13 20 30.01 1016 10 16 0.00 0.00
2:52 pm 14:52 Cloudy 82 27.8 45 7.2 27 27 NNW 17 28 30.01 1016 10 16 0.00 0.00
3:20 pm 15:20 Cloudy 82 28 45 7 26 26 NW 20 31 30.00 1016 10 16 0.00 0.00
3:52 pm 15:52 Mostly Cloudy 83 28.3 45 7.2 26 26 NNW 15 24 30.00 1016 10 16 0.00 0.00
4:52 pm 16:52 Cloudy 80 26.7 46 7.8 30 30 NNE 16 26 30.00 1016 10 16 0.00 0.00
5:52 pm 17:52 Mostly Cloudy 76 24.4 48 8.9 37 37 NNE 16 26 30.03 1017 10 16 0.00 0.00
6:52 pm 18:52 Mostly Cloudy 73 22.8 40 4.4 30 30 N 18 30 30.05 1018 10 16 0.00 0.00
7:52 pm 19:52 Mostly Cloudy 71 21.7 34 1.1 26 26 NNE 16 26 30.06 1018 10 16 0.00 0.00
8:52 pm 20:52 Mostly Cloudy 68 20 34 1.1 28 28 NE 10 17 30.10 1019 10 16 0.00 0.00
9:52 pm 21:52 Partly Cloudy 66 18.9 37 2.8 34 34 NE 9 15 30.14 1021 10 16 0.00 0.00
10:52 pm 22:52 Mostly Cloudy 64 17.8 33 0.6 32 32 NNE 10 17 30.16 1021 10 16 0.00 0.00
11:52 pm 23:52 Mostly Clear 62 16.7 32 0 32 32 NNE 13 20 30.17 1022 10 16 0.00 0.00

Powered by AerisWeather